Location: Utrecht
(52.0907°N, 5.1214°E)
Time: 18:14:58
(UTC+01:00)

TIROS 6 DEB - Visible Passes

Search period start: 30 November 2022 00:00
Search period end: 10 December 2022 00:00
Orbit: 613 x 633 km, 58.3° (Epoch: 29 November)

Date Brightness Start Highest point End Pass type
(mag) Time Alt. Az. Time Alt. Az. Time Alt. Az.
30 Nov ? 18:11:35 10° WNW 18:15:48 37° N 18:17:51 24° NE visible
30 Nov ? 19:52:41 10° WNW 19:55:02 29° NW 19:55:02 29° NW visible
01 Dec ? 18:30:19 10° WNW 18:34:34 39° N 18:35:44 33° NE visible
01 Dec ? 20:11:12 10° WNW 20:12:56 23° NW 20:12:56 23° NW visible
02 Dec ? 17:07:40 10° WNW 17:11:54 38° N 17:16:08 10° ENE visible
02 Dec ? 18:48:57 10° WNW 18:53:18 46° NNE 18:53:40 45° NNE visible
02 Dec ? 20:29:43 10° WNW 20:30:52 18° WNW 20:30:52 18° WNW visible
03 Dec ? 17:26:28 10° WNW 17:30:41 37° N 17:34:27 12° ENE visible
03 Dec ? 19:07:29 10° WNW 19:11:39 59° N 19:11:39 59° N visible
03 Dec ? 20:48:20 10° WNW 20:48:51 13° WNW 20:48:51 13° WNW visible
04 Dec ? 17:45:10 10° WNW 17:49:26 40° N 17:52:29 17° ENE visible
04 Dec ? 19:25:59 10° WNW 19:29:42 59° NW 19:29:42 59° NW visible
05 Dec ? 18:03:46 10° WNW 18:08:09 49° NNE 18:10:37 24° E visible
05 Dec ? 19:44:31 10° WNW 19:47:49 43° W 19:47:49 43° W visible
06 Dec ? 18:22:16 10° WNW 18:26:47 67° NNE 18:28:51 31° ESE visible
06 Dec ? 20:03:12 10° WNW 20:06:04 29° W 20:06:04 29° W visible
07 Dec ? 16:59:59 10° WNW 17:04:18 42° NNE 17:08:36 10° E visible
07 Dec ? 18:40:47 10° WNW 18:45:19 82° SW 18:47:14 34° SE visible
07 Dec ? 20:22:12 10° W 20:24:28 18° WSW 20:24:28 18° WSW visible
08 Dec ? 17:18:33 10° WNW 17:22:59 53° NNE 17:27:25 10° E visible
08 Dec ? 18:59:21 10° WNW 19:03:43 49° SW 19:05:49 27° SSE visible
08 Dec ? 20:42:51 10° WSW 20:43:04 10° WSW 20:43:04 10° WSW visible
09 Dec ? 17:37:04 10° WNW 17:41:35 75° NNE 17:46:07 10° ESE visible
09 Dec ? 19:18:05 10° WNW 19:21:58 29° SW 19:24:43 16° S visible
